Tracking 19638 objects as of 20-Apr-2019
HD Live streaming from Space Station
objects crossing your sky now

METEOR 2-5 DEB

Track METEOR 2-5 DEB now!
10-day predictions


NORAD ID: 40213
Int'l Code: 1979-095CL
Perigee: 820.6 km
Apogee: 831.7 km
Inclination: 81.2 °
Period: 101.3 minutes
Semi major axis: 7197 km
RCS: Unknown
Launch date: October 31, 1979
Source: Commonwealth of Independent States (former USSR) (CIS)
Launch site: PLESETSK MISSILE AND SPACE COMPLEX (PKMTR)

Note: This is SATELLITE DEBRIS
aabbcc
Your satellite tracking list
Your tracking list is empty




NASA's NSSDC Master Catalog

Two Line Element Set (TLE):
1 40213U 79095CL  19097.09546416  .00001021  00000-0  45759-3 0  9998
2 40213  81.2104 227.6049 0007720  51.8825  73.6883 14.21865303401185
Source of the keplerian elements: AFSPC